User: anonymous   Login
Location: Unspecified
(0.0000°N, 0.0000°E)
Time: 12:28:29
(UTC+00:00)
Language:

M-CUBED/EXP-1 PRIME - Orbit

View from above orbital plane
View from above orbital plane
View from above satellite
View from above satellite

Ground track
Ground track

The orbit data is extracted from the following two-line orbital elements,

1 37855U 11061F   21015.82373779  .00001442  00000-0  77303-4 0  9997
2 37855 101.7258 220.0679 0168636 164.4216 196.2278 15.07089541503186
Epoch (UTC): 15 January 2021 19:46:10
Eccentricity: 0.0168636
inclination: 101.7258°
perigee height: 428 km
apogee height: 662 km
right ascension of ascending node: 220.0679°
argument of perigee: 164.4216°
revolutions per day: 15.07089541
mean anomaly at epoch: 196.2278°
orbit number at epoch: 50318

The dashed part of the orbit path shows where the satellite is in the earth's shadow,  

DLR